Linden, NJ

9:55 PM EDT on July 22, 2017 (GMT -0400)
Linden

Weather History for KLDJ - July, 2013

Change the Weather History Date:

Tuesday, July 16, 2013

  Actual Average (KEWR) Record (KEWR)
Temperature  
Mean Temperature 87 °F -  
Max Temperature 96 °F 87 °F 101 °F (1988)
Min Temperature 78 °F 70 °F 57 °F (1946)
Cooling Degree Days 22    
Growing Degree Days 37 (Base 50)    
Moisture  
Dew Point 66 °F    
Average Humidity 53    
Maximum Humidity 73    
Minimum Humidity 30    
Precipitation  
Precipitation 0.00 in - - ()
Sea Level Pressure  
Sea Level Pressure 30.17 in    
Wind  
Wind Speed 5 mph (NNW)    
Max Wind Speed 12 mph    
Max Gust Speed 9 mph    
Visibility 10 miles    
Events      
Averages and records for this station are not official NWS values.
T = Trace of Precipitation, MM = Missing Value Source: NWS Daily Summary

Daily Weather History Graph

Daily Weather History Graph

Search for Another Location

Airport or City:

Trip Planner

Search our weather history database for the weather conditions in past years. The results will help you decide how hot, cold, wet, or windy it might be!

Date:

Astronomy

Jul. 16, 2013 Rise Set
Actual Time 5:39 AM EDT 8:25 PM EDT
Civil Twilight 5:07 AM EDT 8:57 PM EDT
Nautical Twilight 4:27 AM EDT 9:38 PM EDT
Astronomical Twilight 3:41 AM EDT 10:24 PM EDT
Moon 2:03 PM EDT (7/16) 12:08 AM EDT (7/16)
Length of Visible Light 15h 50m
Length of Day
14h 45m
First Quarter, 56% of the Moon is Illuminated
Jul 16
First Quarter
Jul 22
Full
Jul 29
Last Quarter
Aug 6
New
Aug 14
First Quarter

Hourly Weather History & Observations

Time (EDT) Temp. Heat Index Dew Point Humidity Pressure Visibility Wind Dir Wind Speed Gust Speed Precip Events Conditions
12:15 AM 84.7 °F 89.7 °F 71.1 °F 63% 30.16 in 10.0 mi WNW 4.6 mph - N/A   Clear
12:35 AM 84.2 °F 89.3 °F 71.1 °F 65% 30.16 in 10.0 mi WNW 3.5 mph - N/A   Clear
12:55 AM 84.2 °F 89.0 °F 70.9 °F 64% 30.16 in 10.0 mi NW 3.5 mph - N/A   Clear
1:15 AM 84.0 °F 88.7 °F 70.7 °F 64% 30.16 in 10.0 mi NW 3.5 mph - N/A   Clear
1:35 AM 83.3 °F 87.6 °F 70.3 °F 65% 30.16 in 10.0 mi NW 4.6 mph - N/A   Clear
1:55 AM 82.9 °F 87.0 °F 70.2 °F 65% 30.16 in 10.0 mi NW 4.6 mph - N/A   Clear
2:15 AM 82.8 °F 86.7 °F 69.8 °F 65% 30.16 in 10.0 mi NW 5.8 mph - N/A   Clear
2:35 AM 82.6 °F 86.4 °F 69.8 °F 65% 30.16 in 10.0 mi NW 5.8 mph - N/A   Clear
2:55 AM 82.2 °F 86.0 °F 69.8 °F 66% 30.15 in 10.0 mi NW 6.9 mph - N/A   Clear
3:15 AM 81.5 °F 84.9 °F 69.8 °F 67% 30.16 in 10.0 mi NW 6.9 mph - N/A   Clear
3:35 AM 81.1 °F 84.5 °F 69.6 °F 68% 30.16 in 10.0 mi NNW 6.9 mph - N/A   Clear
3:55 AM 81.0 °F 84.2 °F 69.4 °F 68% 30.16 in 10.0 mi NNW 5.8 mph - N/A   Clear
4:15 AM 80.1 °F 83.0 °F 69.4 °F 70% 30.16 in 10.0 mi NW 3.5 mph - N/A   Clear
4:35 AM 79.9 °F - 69.3 °F 70% 30.16 in 10.0 mi NNW 5.8 mph - N/A   Clear
4:55 AM 79.7 °F - 69.1 °F 70% 30.16 in 10.0 mi NW 4.6 mph - N/A   Clear
5:15 AM 79.2 °F - 69.1 °F 71% 30.17 in 10.0 mi NNW 4.6 mph - N/A   Clear
5:35 AM 78.8 °F - 68.9 °F 72% 30.17 in 10.0 mi NNW 4.6 mph - N/A   Clear
5:55 AM 78.3 °F - 68.9 °F 73% 30.18 in 10.0 mi Calm Calm - N/A   Clear
6:15 AM 78.4 °F - 68.7 °F 72% 30.18 in 10.0 mi NW 4.6 mph - N/A   Scattered Clouds
6:35 AM 79.3 °F - 68.0 °F 68% 30.19 in 10.0 mi Calm Calm - N/A   Mostly Cloudy
6:55 AM 80.4 °F 83.0 °F 67.5 °F 65% 30.19 in 10.0 mi North 3.5 mph - N/A   Mostly Cloudy
7:15 AM 81.9 °F 84.2 °F 66.6 °F 60% 30.19 in 10.0 mi NNW 4.6 mph - N/A   Scattered Clouds
7:35 AM 82.8 °F 85.1 °F 66.4 °F 58% 30.20 in 10.0 mi North 3.5 mph - N/A   Clear
7:55 AM 84.0 °F 86.3 °F 66.2 °F 55% 30.20 in 10.0 mi North 4.6 mph - N/A   Clear
8:15 AM 85.1 °F 87.1 °F 65.8 °F 52% 30.20 in 10.0 mi North 6.9 mph - N/A   Clear
8:35 AM 86.4 °F 88.7 °F 66.4 °F 51% 30.21 in 10.0 mi North 5.8 mph - N/A   Clear
8:55 AM 86.4 °F 88.4 °F 65.8 °F 50% 30.20 in 10.0 mi North 9.2 mph - N/A   Clear
9:15 AM 87.3 °F 89.2 °F 65.5 °F 48% 30.20 in 10.0 mi North 8.1 mph - N/A   Clear
9:35 AM 87.8 °F 89.7 °F 65.3 °F 47% 30.20 in 10.0 mi North 9.2 mph - N/A   Clear
9:55 AM 89.1 °F 91.0 °F 65.1 °F 45% 30.20 in 10.0 mi North 9.2 mph - N/A   Clear
10:15 AM 89.8 °F 91.8 °F 65.1 °F 44% 30.20 in 10.0 mi North 9.2 mph - N/A   Clear
10:35 AM 89.8 °F 91.8 °F 65.1 °F 44% 30.20 in 10.0 mi North 9.2 mph - N/A   Clear
10:55 AM 91.0 °F 92.2 °F 63.5 °F 40% 30.19 in 10.0 mi North 9.2 mph - N/A   Clear
11:15 AM 91.8 °F 93.0 °F 63.9 °F 39% 30.19 in 10.0 mi NNW 11.5 mph - N/A   Clear
11:55 AM 92.3 °F 93.4 °F 63.3 °F 38% 30.18 in 10.0 mi NNW 8.1 mph - N/A   Unknown
12:15 PM 92.7 °F 94.0 °F 63.3 °F 38% 30.18 in 10.0 mi North 9.2 mph - N/A   Clear
12:35 PM 92.8 °F 94.3 °F 64.0 °F 38% 30.17 in 10.0 mi North 9.2 mph - N/A   Clear
12:55 PM 93.7 °F 94.9 °F 63.1 °F 36% 30.17 in 10.0 mi North 6.9 mph - N/A   Clear
1:15 PM 94.1 °F 94.6 °F 61.7 °F 34% 30.17 in 10.0 mi North 4.6 mph 9.2 mph N/A   Clear
1:35 PM 94.3 °F 94.9 °F 62.1 °F 34% 30.17 in 10.0 mi North 5.8 mph - N/A   Scattered Clouds
1:55 PM 93.7 °F 94.9 °F 63.0 °F 36% 30.16 in 10.0 mi North 9.2 mph - N/A   Scattered Clouds
2:35 PM 95.7 °F 96.3 °F 61.2 °F 32% 30.16 in 10.0 mi NNW 6.9 mph - N/A   Scattered Clouds
2:55 PM 96.3 °F 96.3 °F 60.1 °F 30% 30.15 in 10.0 mi North 9.2 mph - N/A   Clear
8:35 PM - - - N/A% 30.15 in - North 3.5 mph - N/A   Unknown
8:55 PM 91.2 °F 91.8 °F 62.2 °F 38% 30.15 in 10.0 mi North 5.8 mph - N/A   Clear
9:15 PM 90.7 °F 91.3 °F 62.2 °F 39% 30.16 in 10.0 mi North 3.5 mph - N/A   Clear
9:35 PM 90.5 °F 91.1 °F 62.2 °F 39% 30.16 in 10.0 mi Calm Calm - N/A   Clear
9:55 PM 90.5 °F 91.1 °F 62.2 °F 39% 30.17 in 10.0 mi Calm Calm - N/A   Clear
10:15 PM 89.6 °F 90.8 °F 63.5 °F 42% 30.17 in 10.0 mi Calm Calm - N/A   Clear
10:35 PM 87.8 °F 90.0 °F 65.7 °F 48% 30.17 in 10.0 mi WNW 3.5 mph - N/A   Clear
10:55 PM 87.1 °F 89.2 °F 66.0 °F 49% 30.17 in 10.0 mi Calm Calm - N/A   Scattered Clouds
11:15 PM 86.9 °F 89.3 °F 66.4 °F 50% 30.17 in 10.0 mi Calm Calm - N/A   Overcast
11:35 PM 86.9 °F 90.3 °F 68.0 °F 53% 30.17 in 10.0 mi Calm Calm - N/A   Overcast
11:55 PM 85.6 °F 88.8 °F 68.0 °F 55% 30.17 in 10.0 mi Calm Calm - N/A   Overcast